Location: Azat
(46.0765°N, 1.7600°E)
Time: 02:42:49
(UTC+00:00)

Cosmos 2208 Rocket - Pass Details

Date: 09 April 2020
Orbit: 754 x 806 km, 74.0° (Epoch: 02 June)

Event Time Altitude Azimuth Distance (km) Brightness Sun altitude
Rises 21:28:48 0° 337° (NNW) 3,225 8.4 -26.9°
Reaches altitude 10° 21:31:10 10° 336° (NNW) 2,300 7.4 -27.2°
Enters shadow 21:36:09 76° 280° (W) 793 4.0 -27.7°
